Weather in Gardone Riviera

Italy     45°37′17″N   10°34′04″E
temp.,
°C
wind,
m/s
gust,
m/s
humid.,
%
clouds,
%
prec.,
mm/h
press.,
hPa
HPBL,
m
16 january, sun
sun1601:00+5w11770 0.0 102535
04:00+6wnw11740 0.0 102436
07:00+5wnw11720 0.0 102460
10:00+7w11660 0.0 1024143
13:00+9wsw22620 0.0 1023324
16:00+9wsw23700 0.0 1022117
19:00+6nnw11770 0.0 102337
22:00+6nne01810 0.0 102566
17 january, mon
mon1701:00+6ne11780 0.0 1026142
04:00+5nne22660 0.0 1027132
07:00+5n22660 0.0 1027126
10:00+6nnw126087 0.0 1028154
13:00+9wsw22620 0.0 1026266
16:00+8w34575 0.0 1024105
19:00+6nw2360100 0.0 102458
22:00+7ne225850 0.0 1026117
18 january, tue
tue1801:00+5e23650 0.0 1028137
04:00+5ne34600 0.0 1029142
07:00+5ne23590 0.0 1031123
10:00+7ene12570 0.0 1032204
13:00+9ssw21540 0.0 1033319
16:00+8s11620 0.0 1033116
19:00+6nnw01680 0.0 103451
22:00+5nw11710 0.0 103535
19 january, wed
wed1901:00+5nnw11690 0.0 103452
04:00+4nnw11670 0.0 1033129
07:00+4nw11670 0.0 1032101
10:00+6w11630 0.0 1032101
13:00+8wsw22550 0.0 1029394
16:00+7sw23640 0.0 1026183
19:00+5w12740 0.0 102653
22:00+4wnw11760 0.0 102546
20 january, thu
thu2001:00+3nw117511 0.0 102472
04:00+4w017399 0.0 1022102
07:00+4s227573 0.0 1020101
10:00+5w117089 0.0 1020150
13:00+6wsw2362100 0.0 1017502
16:00+7wsw23686 0.0 1014280
19:00+4nnw117698 0.0 1014114
22:00+4ne12772 0.0 1015159